Location: Asbacherhof
(48.8543°N, 10.7903°E)
Time: 23:18:48
(UTC+00:00)

Cosmos 1269 Rocket - Pass Details

Date: 26 May 2022
Orbit: 773 x 778 km, 74.1° (Epoch: 26 June)

Event Time Altitude Azimuth Distance (km) Brightness Sun altitude
Rises 00:43:03 0° 336° (NNW) 3,261 7.9 -17.3°
Reaches altitude 10° 00:45:27 10° 337° (NNW) 2,330 7.1 -17.1°
Maximum altitude 00:50:45 90° 52° (NE) 780 4.0 -16.8°
Enters shadow 00:55:06 16° 158° (SSE) 1,959 5.7 -16.5°
